Regional Weather Roundup
Issued by NWS San Angelo, TX

Current Version | Previous Version | Text Only | Print | Product List | Glossary On
Versions: 1 2 3 4 5 6 7 8 9 10 11 12 13 14 15 16 17 18 19 20 21 22 23 24 25 26 27 28 29 30 31 32 33 34 35 36 37 38 39 40 41 42 43 44 45 46 47 48 49 50
000
ASUS44 KSJT 200910
RWRSJT
WEST CENTRAL TEXAS REGIONAL WEATHER ROUNDUP
NATIONAL WEATHER SERVICE SAN ANGELO TX
400 AM CDT FRI OCT 20 2017

NOTE: "FAIR" INDICATES FEW OR NO CLOUDS BELOW 12,000 FEET WITH NO
SIGNIFICANT WEATHER AND/OR OBSTRUCTIONS TO VISIBILITY.

TXZ049-054-064>066-071>073-076>078-098-099-113-114-127-128-139-140-
154-155-168>170-201000
...LOCATIONS ACROSS WEST CENTRAL TEXAS...

CITY           SKY/WX    TMP DP  RH WIND       PRES   REMARKS
SAN ANGELO     MOCLDY    62  56  80 SE5       30.05S
ABILENE        FAIR      65  59  81 S12       30.04F
DYESS AFB      MOCLDY    67  59  75 SE8       30.04S
JUNCTION       MOCLDY    63  59  87 E7        30.06F
SWEETWATER     CLOUDY    65  57  73 S15G21    30.07S
BROWNWOOD      CLOUDY    64  59  82 SE7       30.07F
COLEMAN        FAIR      65  58  76 SE9       30.06F
SONORA         MOCLDY    66  61  82 S9G15     30.10S
OZONA          CLOUDY    66  59  77 S15G21    30.07F
BRADY          NOT AVBL
$$

TEXAS PANHANDLE/OKLAHOMA PANHANDLE

CITY           SKY/WX    TMP DP  RH WIND       PRES   REMARKS
AMARILLO       FAIR      58  52  80 S18       29.99F
BORGER         MOCLDY    63  52  67 S14       29.96F
CANADIAN       FAIR      60  51  70 S17G23    29.97F
DALHART        CLEAR     57  53  86 S13       29.95F
DUMAS          FAIR      57  52  84 S13       29.95F
GUYMON         NOT AVBL
HEREFORD       FAIR      56  54  91 MISG      29.99F
PAMPA          PTSUNNY   59  48  67 S15       30.00F
PERRYTON       CLOUDY    63  48  58 S14       29.95F
$$

SOUTHERN PANHANDLE/SOUTH PLAINS/ROLLING PLAINS

CITY           SKY/WX    TMP DP  RH WIND       PRES   REMARKS
LUBBOCK        MOCLDY    62  53  72 SW13      30.05F
SNYDER         CLOUDY    61  55  79 S3        30.08R
CHILDRESS      FAIR      59  52  77 S7        30.04S
SEMINOLE       CLOUDY    59  56  89 W6        30.11F
$$

PERMIAN BASIN

CITY           SKY/WX    TMP DP  RH WIND       PRES   REMARKS
MIDLAND        CLOUDY    61  54  77 NW5       30.09R
ODESSA         NOT AVBL
WINK           CLOUDY    61  58  90 NW12      30.08F
$$

FAR WEST/SOUTHWEST MOUNTAINS/TRANS PECOS

CITY           SKY/WX    TMP DP  RH WIND       PRES   REMARKS
ALPINE         CLOUDY    60  51  71 E7        30.16F
DRYDEN           N/A     61  56  83 NW10      30.05R
EL PASO        PTCLDY    60  52  74 S8        30.04S
FORT STOCKTON  FAIR      62  57  83 NW15      30.08F
GUADALUPE PASS MOCLDY    52  51  97 NE32      30.11F FOG
MARFA          FAIR      57  52  83 NE7       30.12F
PECOS          LGT RAIN  61  59  94 NW16G28   30.05F
$$

DALLAS/FORT WORTH METROPLEX

CITY           SKY/WX    TMP DP  RH WIND       PRES   REMARKS
DFW AIRPORT    MOCLDY    65  57  75 SE6       30.07F
FTW MEACHAM    FAIR      67  59  75 S8        30.07F
DAL-EXECUTIVE  FAIR      62  57  83 SE7       30.08F
GRAND PRAIRIE  FAIR      67  56  69 SE3       30.10S
ADDISON        FAIR      65  57  74 SE7       30.11S
MESQUITE       FAIR      63  55  76 SE3       30.09F
LANCASTER      FAIR      62  55  77 CALM      30.09F
$$

NORTH CENTRAL TEXAS

CITY           SKY/WX    TMP DP  RH WIND       PRES   REMARKS
SHRMAN/DENISON FAIR      64  55  75 SE8       30.11S
GAINESVILLE    FAIR      59  54  84 SE3       30.11S
BRIDGEPORT     FAIR      64  57  80 SE5       30.10S
DENTON         FAIR      64  57  78 SE7       30.08F
WAXAHACHIE     FAIR      63  58  82 CALM      30.10F
GRANBURY       FAIR      66  59  78 SE7       30.08F
$$

WESTERN NORTH TEXAS

CITY           SKY/WX    TMP DP  RH WIND       PRES   REMARKS
WICHITA FALLS  FAIR      63  55  75 SE12      30.04F
VERNON         NOT AVBL
BRECKENRIDGE   FAIR      68  56  65 S8        30.05S HAZE
COMANCHE       FAIR      65  60  83 S10       30.08S
$$

CENTRAL AND SOUTH CENTRAL TEXAS

CITY           SKY/WX    TMP DP  RH WIND       PRES   REMARKS
AUSTIN/BERGSTM MOCLDY    62  61  96 CALM      30.03F
WACO           FAIR      64  58  80 SE8       30.06F
HILLSBORO      FAIR      64  59  82 E6        30.08F
TEMPLE         FAIR      61  59  93 N3        30.05F
KILLEEN-GRAY   FAIR      62  60  93 S3        30.04F
FORT HOOD      FAIR      63  59  89 CALM      30.02F
GEORGETOWN     FAIR      62  59  90 CALM      30.06F
LAGO VISTA     FAIR      67  62  85 SE3       30.06F
SAN MARCOS     FAIR      65  62  90 N5        30.04F
NEW BRAUNFELS  FAIR      66  63  90 N3        30.02F
RANDOLPH AFB   CLOUDY    67  64  89 CALM      30.03F
SAN ANTONIO    CLOUDY    67  63  87 CALM      30.04F
STINSON        CLOUDY    71  66  84 NE3       30.01F
PLEASANTON     NOT AVBL
LA GRANGE      MOCLDY    68  65  90 CALM      30.00F
GIDDINGS       FAIR      64  60  86 CALM      30.04F
$$

EAST TEXAS

CITY           SKY/WX    TMP DP  RH WIND       PRES   REMARKS
PARIS          FAIR      59  55  87 E6        30.13F
CLARKSVILLE    NOT AVBL
TYLER          FAIR      64  61  90 SE7       30.10F
LONGVIEW       FAIR      63  60  90 SE3       30.11F
PALESTINE      FAIR      67  59  75 E6        30.10F
NACOGDOCHES    FAIR      65  58  78 E8        30.09F
$$

TEXAS HILL COUNTRY AND EDWARDS PLATEAU

CITY           SKY/WX    TMP DP  RH WIND       PRES   REMARKS
LLANO          FAIR      64  61  88 CALM      30.09F
HORSESHOE BAY  FAIR      66  62  85 SE6       30.06F
KERRVILLE      MOCLDY    64  61  91 CALM      30.07F
FREDERICKSBRG  FAIR      62  59  88 S3        30.07F
ROCKSPRINGS    NOT AVBL
HONDO          CLOUDY    69  63  81 NE6       30.04F
UVALDE         CLOUDY    67  64  89 E5        30.05S
DEL RIO        MOCLDY    68  64  87 E8        30.01S
$$

SOUTHEAST TEXAS

CITY           SKY/WX    TMP DP  RH WIND       PRES   REMARKS
COLLEGE STN    LGT RAIN  69  63  81 E7        30.03F
CALDWELL       FAIR      67  62  85 NE5       30.03F
CROCKETT         N/A     68  59  73 E7        30.08F
BRENHAM        MOCLDY    69  66  92 CALM      30.03F
HUNTSVILLE     LGT RAIN  69  60  73 E7        30.05F
CONROE         FAIR      66  64  93 NE5       30.05F
HOUSTON BUSH   MOCLDY    69  65  86 NE6       30.03F
HOUSTON HOBBY  TSTM      74  68  81 NE7       30.02F
PERLAND        HVY RAIN  72  68  87 S6        30.04S FOG
WHARTON        FAIR      69  67  93 NE7       30.02F
$$

THE UPPER TEXAS COAST

CITY           SKY/WX    TMP DP  RH WIND       PRES   REMARKS
ORANGE         FAIR      71  69  94 E7        30.08F
PORT ARTHUR    FAIR      72  69  90 E9        30.05F
GALVESTON      RAIN      79  75  87 E16G24    30.01F
ANGLETON       CLOUDY    73  72  96 NE5       30.02S
BAY CITY       PTSUNNY   71  71 100 NE6       30.01S
$$

TEXAS COASTAL BEND, RIO GRANDE PLAINS DEEP SOUTH TEXAS

CITY           SKY/WX    TMP DP  RH WIND       PRES   REMARKS
VICTORIA       CLOUDY    69  67  93 NE8       30.00F
BEEVILLE       CLOUDY   N/A N/A N/A CALM      30.00F
ROCKPORT       FAIR      70  69  97 NE3       29.97F
PORT ARANSAS   NOT AVBL
PORT LAVACA    CLOUDY    71  69  93 E6        30.00S
CORPUS CHRISTI CLOUDY    72  71  97 E6        29.98F
KINGSVILLE NAS CLOUDY    73  73 100 CALM      29.98F
COTULLA        CLOUDY    71  65  81 SE7       30.00F
LAREDO         FAIR      70  68  93 E6        29.99F
BROWNSVILLE    FAIR      70  69  97 CALM      29.98F
PORT ISABEL    FAIR      68  67  96 CALM      29.97F
HEBBRONVILLE   CLOUDY    70  66  89 CALM      30.01F
MCALLEN        FAIR      74  70  87 E3        29.98F
WESLACO        FAIR      68  67  96 CALM      29.97F FOG
FALFURRIAS     CLOUDY    73  72  95 CALM      29.98F
EDINBURG       FAIR      69  66  92 CALM      29.99F
$$



USA.gov is the U.S. government's official web portal to all federal, state and local government web resources and services.